QPF
0.00 0.00 0.00 0.00 0.00 0.00 0.00 0.00 0.00 0.00 0.00 0.00 0.00 0.00 0.00 0.00 0.00 0.00 0.00 0.00 0.00 0.02 0.18 0.49 0.16 0.10 0.05 0.03 0.03 0.05 0.01 0.00 0.00 0.00 0.00 0.02 0.02 0.03 0.05 0.00 0.00 0.00 0.03 0.01 0.00 0.02 0.01 0.00 0.00
0.00 0.00 0.00 0.00 0.00 0.00 0.00 0.00 0.00 0.00 0.00 0.00 0.00 0.00 0.00 0.00 0.00 0.00 0.00 0.00 0.03 0.14 0.12 0.33 0.19 0.10 0.11 0.08 0.07 0.05 0.02 0.01 0.00 0.00 0.00 0.00 0.04 0.04 0.04 0.00 0.00 0.00 0.00 0.03 0.03 0.01 0.00 0.00 0.00
0.00 0.00 0.00 0.00 0.00 0.00 0.00 0.00 0.00 0.00 0.00 0.00 0.00 0.00 0.00 0.00 0.00 0.00 0.00 0.00 0.00 0.01 0.18 0.21 0.15 0.14 0.15 0.09 0.11 0.07 0.02 0.02 0.00 0.00 0.00 0.00 0.08 0.02 0.00 0.00 0.00 0.00 0.00 0.00 0.02 0.01 0.00 0.00 0.00
0.00 0.00 0.00 0.00 0.00 0.00 0.00 0.00 0.00 0.00 0.00 0.00 0.00 0.00 0.00 0.00 0.00 0.00 0.00 0.00 0.00 0.00 0.20 0.22 0.09 0.08 0.06 0.14 0.14 0.01 0.00 0.02 0.01 0.00 0.00 0.01 0.04 0.00 0.00 0.00 0.00 0.00 0.00 0.00 0.00 0.03 0.00 0.00 0.00
0.00 0.00 0.00 0.00 0.00 0.00 0.00 0.00 0.00 0.00 0.00 0.00 0.00 0.00 0.00 0.00 0.00 0.00 0.00 0.00 0.00 0.00 0.08 0.23 0.04 0.03 0.08 0.06 0.03 0.01 0.00 0.00 0.01 0.00 0.00 0.00 0.00 0.00 0.00 0.00 0.00 0.00 0.00 0.00 0.00 0.00 0.00 0.01 0.01
0.00 0.00 0.00 0.00 0.00 0.00 0.00 0.00 0.00 0.00 0.00 0.00 0.00 0.00 0.00 0.00 0.00 0.00 0.00 0.00 0.00 0.00 0.02 0.34 0.05 0.02 0.05 0.01 0.04 0.02 0.00 0.00 0.00 0.00 0.00 0.00 0.00 0.00 0.00 0.00 0.00 0.00 0.00 0.00 0.00 0.00 0.00 0.00 0.00
0.00 0.00 0.00 0.00 0.00 0.00 0.00 0.00 0.00 0.00 0.00 0.00 0.00 0.00 0.00 0.00 0.00 0.00 0.00 0.00 0.01 0.06 0.08 0.21 0.22 0.11 0.06 0.04 0.01 0.00 0.02 0.00 0.00 0.00 0.00 0.00 0.00 0.00 0.00 0.00 0.00 0.00 0.00 0.01 0.00 0.00 0.00 0.00 0.00
0.00 0.00 0.00 0.00 0.00 0.00 0.00 0.00 0.00 0.00 0.00 0.00 0.00 0.00 0.00 0.00 0.00 0.00 0.00 0.01 0.04 0.08 0.08 0.13 0.28 0.21 0.06 0.00 0.01 0.00 0.00 0.00 0.00 0.00 0.00 0.00 0.00 0.00 0.00 0.00 0.00 0.00 0.00 0.00 0.00 0.00 0.00 0.00 0.00
0.00 0.00 0.00 0.00 0.00 0.00 0.00 0.00 0.00 0.00 0.00 0.00 0.00 0.00 0.00 0.00 0.00 0.00 0.00 0.00 0.00 0.05 0.10 0.06 0.06 0.04 0.04 0.00 0.00 0.01 0.00 0.00 0.00 0.00 0.00 0.00 0.00 0.00 0.00 0.00 0.00 0.00 0.00 0.00 0.00 0.00 0.00 0.00 0.00
0.00 0.00 0.00 0.00 0.00 0.00 0.00 0.00 0.00 0.00 0.00 0.00 0.00 0.00 0.00 0.00 0.00 0.00 0.00 0.00 0.00 0.00 0.02 0.01 0.00 0.01 0.00 0.00 0.00 0.00 0.00 0.00 0.00 0.00 0.00 0.00 0.00 0.00 0.00 0.00 0.00 0.00 0.00 0.00 0.00 0.00 0.00 0.00 0.00
0.00 0.00 0.00 0.00 0.00 0.00 0.00 0.00 0.00 0.00 0.00 0.00 0.00 0.00 0.00 0.00 0.00 0.00 0.00 0.00 0.00 0.00 0.00 0.00 0.00 0.00 0.00 0.00 0.00 0.00 0.00 0.00 0.00 0.00 0.00 0.00 0.00 0.00 0.00 0.00 0.00 0.00 0.00 0.00 0.00 0.00 0.00 0.00 0.00
0.00 0.00 0.00 0.00 0.00 0.00 0.00 0.00 0.00 0.00 0.00 0.00 0.00 0.00 0.00 0.00 0.00 0.00 0.00 0.00 0.00 0.00 0.00 0.00 0.00 0.00 0.00 0.00 0.00 0.00 0.00 0.00 0.00 0.00 0.00 0.00 0.00 0.00 0.00 0.00 0.00 0.00 0.00 0.00 0.00 0.00 0.00 0.00 0.00
0.00 0.00 0.00 0.00 0.00 0.00 0.00 0.00 0.00 0.00 0.00 0.00 0.00 0.00 0.00 0.00 0.00 0.00 0.00 0.00 0.00 0.00 0.00 0.00 0.00 0.00 0.00 0.00 0.00 0.00 0.00 0.00 0.00 0.00 0.00 0.00 0.00 0.00 0.00 0.00 0.00 0.00 0.00 0.00 0.00 0.00 0.00 0.00 0.00
0.00 0.00 0.00 0.00 0.00 0.00 0.00 0.00 0.00 0.00 0.00 0.00 0.00 0.00 0.00 0.00 0.00 0.00 0.00 0.00 0.00 0.00 0.00 0.00 0.00 0.00 0.00 0.00 0.00 0.00 0.00 0.00 0.00 0.00 0.00 0.00 0.00 0.00 0.00 0.00 0.00 0.00 0.00 0.00 0.00 0.00 0.00 0.00 0.00
0.00 0.00 0.00 0.00 0.00 0.00 0.00 0.00 0.00 0.00 0.00 0.00 0.00 0.00 0.00 0.00 0.00 0.00 0.00 0.00 0.00 0.00 0.00 0.00 0.00 0.00 0.00 0.00 0.00 0.00 0.00 0.00 0.00 0.00 0.00 0.00 0.00 0.00 0.00 0.00 0.00 0.00 0.00 0.00 0.00 0.00 0.00 0.00 0.00
0.00 0.00 0.00 0.00 0.00 0.00 0.00 0.00 0.00 0.00 0.00 0.00 0.00 0.00 0.00 0.00 0.00 0.00 0.00 0.00 0.00 0.00 0.00 0.00 0.00 0.00 0.00 0.00 0.00 0.00 0.00 0.00 0.00 0.00 0.00 0.00 0.00 0.00 0.00 0.00 0.00 0.00 0.00 0.00 0.00 0.00 0.00 0.00 0.00
0.00 0.00 0.00 0.00 0.00 0.00 0.00 0.00 0.00 0.00 0.00 0.00 0.00 0.00 0.00 0.00 0.00 0.00 0.00 0.00 0.00 0.00 0.00 0.00 0.00 0.00 0.00 0.00 0.00 0.00 0.00 0.00 0.00 0.00 0.00 0.00 0.02 0.04 0.00 0.00 0.00 0.00 0.00 0.00 0.00 0.00 0.00 0.00 0.00
0.00 0.00 0.00 0.00 0.00 0.00 0.00 0.00 0.00 0.00 0.00 0.00 0.00 0.00 0.00 0.00 0.00 0.00 0.01 0.00 0.00 0.00 0.00 0.00 0.00 0.00 0.00 0.00 0.00 0.00 0.00 0.00 0.00 0.00 0.00 0.00 0.00 0.00 0.00 0.00 0.00 0.00 0.00 0.00 0.00 0.00 0.00 0.00 0.00
0.00 0.00 0.00 0.00 0.00 0.00 0.00 0.00 0.00 0.00 0.00 0.00 0.00 0.00 0.00 0.00 0.00 0.00 0.00 0.00 0.00 0.00 0.01 0.02 0.00 0.00 0.00 0.00 0.00 0.00 0.00 0.00 0.00 0.00 0.00 0.01 0.01 0.03 0.01 0.00 0.00 0.00 0.00 0.00 0.00 0.00 0.00 0.00 0.00
0.00 0.00 0.00 0.00 0.00 0.00 0.00 0.00 0.00 0.00 0.00 0.00 0.00 0.00 0.00 0.00 0.00 0.00 0.00 0.00 0.00 0.00 0.01 0.02 0.04 0.02 0.03 0.05 0.00 0.00 0.00 0.00 0.00 0.00 0.00 0.00 0.00 0.00 0.00 0.00 0.00 0.00 0.01 0.01 0.00 0.00 0.00 0.00 0.01
0.00 0.00 0.00 0.00 0.00 0.00 0.00 0.00 0.00 0.00 0.00 0.00 0.00 0.00 0.00 0.00 0.00 0.00 0.00 0.00 0.00 0.00 0.03 0.03 0.04 0.03 0.02 0.04 0.03 0.00 0.00 0.00 0.01 0.05 0.03 0.01 0.00 0.00 0.00 0.00 0.00 0.00 0.00 0.01 0.01 0.00 0.00 0.00 0.04
0.00 0.00 0.00 0.00 0.00 0.00 0.00 0.00 0.00 0.00 0.00 0.00 0.00 0.00 0.00 0.00 0.00 0.00 0.00 0.00 0.00 0.00 0.00 0.02 0.02 0.04 0.03 0.00 0.00 0.04 0.02 0.00 0.02 0.04 0.17 0.15 0.03 0.01 0.00 0.00 0.00 0.00 0.00 0.00 0.00 0.00 0.01 0.01 0.01
0.00 0.00 0.00 0.00 0.00 0.00 0.00 0.00 0.00 0.00 0.00 0.00 0.00 0.00 0.00 0.00 0.00 0.00 0.00 0.00 0.00 0.00 0.00 0.00 0.00 0.00 0.00 0.00 0.00 0.06 0.06 0.05 0.06 0.10 0.07 0.03 0.07 0.01 0.00 0.00 0.04 0.04 0.08 0.07 0.06 0.05 0.02 0.00 0.00
0.00 0.00 0.00 0.00 0.00 0.00 0.00 0.00 0.00 0.00 0.00 0.00 0.00 0.00 0.00 0.00 0.00 0.00 0.00 0.00 0.00 0.00 0.00 0.00 0.00 0.00 0.00 0.00 0.00 0.00 0.04 0.07 0.05 0.07 0.05 0.03 0.04 0.04 0.02 0.02 0.02 0.11 0.26 0.25 0.19 0.16 0.09 0.08 0.03
0.00 0.00 0.00 0.00 0.00 0.00 0.00 0.00 0.00 0.00 0.00 0.00 0.00 0.00 0.00 0.00 0.00 0.00 0.00 0.00 0.00 0.00 0.00 0.00 0.00 0.00 0.00 0.00 0.00 0.00 0.00 0.00 0.00 0.01 0.01 0.00 0.00 0.01 0.06 0.07 0.04 0.04 0.16 0.24 0.36 0.34 0.12 0.18 0.14
0.00 0.00 0.00 0.00 0.00 0.00 0.00 0.00 0.00 0.00 0.00 0.00 0.00 0.00 0.00 0.00 0.00 0.00 0.00 0.00 0.00 0.00 0.00 0.00 0.00 0.00 0.00 0.00 0.00 0.00 0.00 0.00 0.00 0.00 0.00 0.00 0.00 0.00 0.00 0.00 0.00 0.00 0.00 0.03 0.15 0.32 0.38 0.30 0.17
0.00 0.00 0.00 0.00 0.00 0.00 0.00 0.00 0.00 0.00 0.00 0.00 0.00 0.00 0.00 0.00 0.00 0.00 0.00 0.00 0.00 0.00 0.00 0.00 0.00 0.00 0.00 0.00 0.00 0.01 0.01 0.01 0.01 0.01 0.00 0.00 0.00 0.00 0.00 0.00 0.00 0.00 0.00 0.01 0.05 0.08 0.19 0.18 0.06
0.00 0.00 0.00 0.00 0.00 0.00 0.00 0.00 0.00 0.00 0.00 0.00 0.00 0.00 0.00 0.00 0.00 0.00 0.00 0.00 0.00 0.00 0.00 0.01 0.00 0.00 0.00 0.00 0.00 0.00 0.00 0.00 0.00 0.00 0.00 0.00 0.00 0.00 0.00 0.00 0.00 0.00 0.00 0.00 0.01 0.03 0.06 0.12 0.09
0.00 0.00 0.00 0.00 0.00 0.00 0.00 0.00 0.00 0.00 0.00 0.00 0.00 0.00 0.00 0.00 0.00 0.00 0.00 0.00 0.00 0.00 0.00 0.00 0.00 0.00 0.01 0.00 0.00 0.00 0.00 0.00 0.00 0.00 0.00 0.00 0.00 0.00 0.00 0.00 0.00 0.00 0.00 0.00 0.00 0.00 0.01 0.01 0.10
0.00 0.00 0.00 0.00 0.00 0.00 0.00 0.00 0.00 0.00 0.00 0.00 0.00 0.00 0.00 0.00 0.00 0.00 0.00 0.00 0.00 0.00 0.02 0.01 0.00 0.00 0.00 0.00 0.00 0.00 0.00 0.00 0.00 0.00 0.00 0.00 0.00 0.00 0.00 0.00 0.00 0.00 0.00 0.00 0.00 0.00 0.00 0.00 0.01
MSLP
1008.84 1009.13 1009.34 1009.67 1010.36 1010.15 1010.20 1009.51 1008.77 1008.43 1008.67 1009.07 1009.07 1009.54 1010.68 1011.61 1012.27 1013.57 1013.40 1013.33 1013.38 1013.59 1013.58 1013.61 1013.96 1014.26 1014.59 1014.87 1015.18 1015.37 1015.62 1015.98 1016.21 1016.62 1017.02 1017.40 1017.59 1017.64 1017.81 1017.98 1018.12 1018.11 1018.18 1018.35 1018.57 1018.68 1018.87 1019.08 1018.94
1008.70 1009.27 1009.59 1009.47 1010.35 1010.82 1010.20 1009.48 1008.94 1008.55 1008.78 1009.08 1009.46 1010.24 1010.90 1012.08 1012.61 1013.30 1013.61 1013.63 1013.55 1013.94 1014.03 1014.00 1014.34 1014.62 1014.99 1015.28 1015.51 1015.70 1016.16 1016.52 1016.77 1016.98 1017.31 1017.59 1018.15 1017.97 1018.13 1018.30 1018.49 1018.56 1018.67 1018.83 1019.05 1019.10 1019.32 1019.46 1019.35
1008.84 1008.93 1009.49 1010.03 1010.73 1010.64 1010.11 1009.48 1009.11 1008.86 1008.78 1008.95 1009.79 1010.53 1011.28 1012.70 1013.28 1013.52 1013.64 1013.90 1013.94 1014.32 1014.47 1014.52 1014.71 1015.08 1015.43 1015.56 1015.92 1016.18 1016.48 1016.97 1017.42 1017.66 1017.69 1017.93 1018.45 1018.43 1018.46 1018.60 1018.78 1018.90 1018.94 1019.23 1019.40 1019.44 1019.61 1019.73 1019.82
1008.65 1009.33 1009.88 1010.03 1010.52 1010.03 1009.63 1009.27 1008.98 1008.94 1009.09 1009.41 1010.09 1011.10 1012.09 1012.55 1013.05 1013.49 1013.93 1014.03 1014.55 1014.81 1014.91 1015.08 1015.04 1015.23 1015.71 1016.06 1016.21 1016.65 1016.96 1017.40 1017.76 1017.97 1018.11 1018.45 1018.62 1018.81 1018.80 1018.95 1019.16 1019.17 1019.28 1019.43 1019.76 1019.92 1020.02 1020.16 1020.25
1008.87 1009.41 1009.99 1010.54 1010.31 1009.49 1008.87 1008.75 1008.91 1009.30 1009.62 1010.18 1010.38 1012.13 1012.92 1013.29 1013.16 1013.79 1014.30 1014.67 1014.94 1015.19 1015.17 1015.25 1015.39 1015.73 1015.96 1016.28 1016.57 1016.99 1017.34 1017.69 1017.92 1018.18 1018.35 1018.66 1018.85 1019.08 1019.06 1019.18 1019.42 1019.42 1019.55 1019.71 1019.97 1020.20 1020.35 1020.46 1020.58
1009.21 1009.73 1010.49 1010.65 1009.93 1008.87 1008.28 1008.40 1008.88 1009.59 1010.11 1010.68 1011.34 1012.28 1013.74 1013.83 1013.70 1014.31 1014.62 1014.96 1015.09 1015.47 1015.54 1015.44 1015.92 1016.18 1016.32 1016.62 1016.95 1017.24 1017.63 1017.88 1018.05 1018.38 1018.54 1018.80 1019.06 1019.26 1019.25 1019.48 1019.63 1019.70 1019.88 1020.00 1020.15 1020.32 1020.53 1020.61 1020.68
1009.23 1010.07 1010.56 1010.41 1009.56 1008.70 1008.04 1008.24 1008.89 1009.62 1010.17 1010.61 1011.12 1012.65 1014.04 1014.31 1014.23 1014.59 1015.09 1015.34 1015.34 1015.59 1015.91 1015.82 1016.25 1016.32 1016.60 1016.89 1017.14 1017.54 1017.77 1017.90 1018.18 1018.51 1018.65 1018.93 1019.31 1019.36 1019.49 1019.65 1019.75 1020.02 1020.13 1020.24 1020.47 1020.62 1020.75 1020.85 1020.89
1009.21 1009.80 1009.99 1009.85 1009.23 1008.42 1007.68 1008.04 1008.58 1009.14 1010.01 1010.32 1010.88 1012.34 1013.68 1014.06 1014.41 1014.87 1015.52 1015.84 1015.90 1015.98 1016.09 1016.40 1016.50 1016.52 1016.79 1017.06 1017.39 1017.68 1017.82 1018.22 1018.40 1018.82 1019.12 1019.30 1019.54 1019.60 1019.64 1019.98 1020.01 1020.20 1020.25 1020.42 1020.65 1020.78 1020.90 1020.89 1021.05
1008.99 1010.00 1010.28 1009.35 1008.69 1008.20 1007.69 1007.93 1008.53 1008.82 1009.72 1010.35 1010.89 1011.57 1012.26 1013.66 1014.42 1015.21 1015.94 1016.44 1016.53 1016.55 1016.66 1016.68 1016.75 1016.95 1017.21 1017.32 1017.55 1017.86 1018.22 1018.43 1018.78 1019.10 1019.30 1019.60 1019.68 1019.72 1020.00 1020.22 1020.19 1020.27 1020.31 1020.49 1020.73 1020.88 1021.11 1021.04 1021.04
1009.41 1010.07 1009.26 1008.58 1007.84 1007.58 1007.70 1007.59 1008.37 1009.10 1009.75 1010.59 1011.22 1012.00 1012.79 1013.71 1014.51 1015.26 1015.90 1016.44 1016.77 1016.89 1017.05 1017.08 1017.01 1017.10 1017.65 1017.72 1018.06 1018.30 1018.47 1018.79 1019.17 1019.39 1019.59 1019.81 1019.87 1020.05 1020.23 1020.28 1020.42 1020.23 1020.45 1020.51 1020.65 1020.94 1021.15 1021.20 1021.26
1009.28 1009.19 1008.25 1007.25 1006.90 1006.92 1007.77 1007.94 1008.17 1009.02 1010.02 1010.39 1010.99 1012.21 1013.02 1013.90 1014.74 1015.36 1015.94 1016.23 1016.43 1016.97 1017.19 1017.27 1017.45 1017.74 1018.03 1018.14 1018.47 1018.67 1018.83 1018.95 1019.21 1019.54 1019.73 1019.87 1020.11 1020.25 1020.44 1020.51 1020.61 1020.51 1020.42 1020.64 1020.72 1021.00 1021.21 1021.30 1021.39
1008.85 1008.10 1007.83 1006.87 1006.76 1007.11 1007.39 1007.80 1008.19 1008.47 1009.00 1009.35 1010.76 1012.02 1013.24 1014.08 1014.67 1015.25 1015.90 1016.35 1016.74 1017.09 1017.15 1017.39 1017.61 1018.00 1018.19 1018.33 1018.47 1018.61 1018.87 1019.14 1019.47 1019.56 1019.78 1020.10 1020.27 1020.34 1020.51 1020.57 1020.60 1020.63 1020.59 1020.81 1020.85 1020.95 1021.12 1021.13 1021.19
1008.31 1007.77 1007.23 1006.51 1006.66 1006.32 1007.01 1007.38 1008.07 1008.52 1008.89 1009.84 1011.30 1012.45 1013.58 1014.26 1014.68 1015.14 1015.54 1016.24 1016.74 1017.07 1017.21 1017.48 1017.62 1017.99 1018.25 1018.44 1018.64 1018.84 1019.03 1019.29 1019.50 1019.71 1019.89 1020.06 1020.33 1020.40 1020.56 1020.63 1020.63 1020.68 1020.78 1020.66 1020.83 1021.06 1021.04 1021.17 1021.04
1007.70 1007.39 1006.95 1006.12 1006.08 1006.23 1006.97 1007.78 1008.15 1009.02 1009.46 1010.46 1011.70 1012.80 1013.64 1014.20 1014.59 1015.17 1015.67 1016.08 1016.43 1016.91 1017.20 1017.48 1017.82 1017.93 1018.09 1018.36 1018.57 1018.90 1019.17 1019.28 1019.52 1019.76 1019.86 1020.07 1020.23 1020.42 1020.60 1020.75 1020.71 1020.84 1020.91 1020.69 1020.84 1021.05 1021.05 1020.96 1021.05
1007.47 1007.25 1006.33 1005.85 1005.57 1006.36 1006.73 1008.24 1008.42 1008.97 1009.86 1011.04 1012.18 1012.76 1013.43 1013.72 1014.26 1014.70 1015.14 1015.65 1016.03 1016.33 1016.83 1017.15 1017.55 1017.79 1018.08 1018.30 1018.52 1018.89 1019.24 1019.36 1019.54 1019.70 1019.89 1020.02 1020.24 1020.34 1020.54 1020.58 1020.64 1020.64 1020.65 1020.67 1020.71 1020.89 1020.92 1020.93 1020.85
1007.87 1007.74 1007.17 1006.06 1005.77 1006.39 1006.59 1007.99 1008.89 1009.34 1009.93 1011.21 1012.20 1012.64 1013.09 1013.61 1013.97 1014.51 1014.96 1015.45 1015.94 1016.32 1016.57 1016.95 1017.25 1017.57 1017.82 1018.01 1018.28 1018.59 1018.94 1019.18 1019.35 1019.52 1019.60 1019.75 1019.87 1020.07 1020.37 1020.47 1020.42 1020.43 1020.59 1020.53 1020.55 1020.69 1020.85 1020.89 1020.87
1008.73 1008.16 1007.57 1006.54 1005.94 1006.20 1007.00 1008.22 1009.29 1009.91 1010.49 1011.28 1011.86 1012.29 1012.86 1013.67 1014.00 1014.33 1014.67 1015.16 1015.64 1015.99 1016.46 1016.84 1017.06 1017.28 1017.56 1017.85 1018.23 1018.53 1018.76 1018.95 1018.98 1019.10 1019.28 1019.39 1019.46 1019.67 1019.89 1020.03 1020.00 1020.19 1020.33 1020.39 1020.48 1020.60 1020.57 1020.63 1020.65
1008.76 1008.25 1007.49 1006.86 1006.37 1006.60 1007.61 1008.57 1009.64 1010.20 1010.64 1011.12 1011.62 1012.25 1012.86 1013.18 1013.15 1013.72 1014.46 1014.87 1015.23 1015.65 1016.16 1016.62 1016.97 1017.26 1017.69 1017.94 1018.37 1018.59 1018.75 1018.68 1018.74 1018.90 1018.99 1019.10 1019.22 1019.32 1019.50 1019.51 1019.61 1019.91 1020.12 1020.23 1020.28 1020.33 1020.42 1020.55 1020.54
1008.03 1007.70 1007.57 1006.65 1006.51 1007.26 1008.30 1009.12 1010.12 1010.54 1011.05 1011.49 1011.84 1012.03 1012.35 1012.30 1012.97 1013.67 1014.14 1014.57 1014.96 1015.41 1015.90 1016.44 1016.78 1017.03 1017.59 1018.16 1018.55 1018.78 1018.61 1018.63 1018.65 1018.54 1018.51 1018.64 1018.86 1018.99 1019.13 1019.08 1019.14 1019.35 1019.63 1019.66 1019.79 1020.10 1020.14 1020.26 1020.36
1007.83 1007.71 1007.35 1007.09 1006.99 1007.69 1009.05 1009.91 1010.42 1010.78 1010.72 1010.84 1011.26 1011.66 1011.88 1012.47 1012.80 1013.34 1013.76 1014.21 1014.56 1014.96 1015.53 1016.15 1016.57 1017.01 1017.44 1017.69 1017.87 1018.02 1018.08 1018.11 1018.06 1018.05 1018.14 1018.12 1018.21 1018.32 1018.39 1018.45 1018.58 1018.65 1019.03 1019.32 1019.52 1019.76 1019.85 1019.85 1019.81
1007.42 1007.45 1007.32 1007.50 1007.94 1008.65 1009.50 1010.75 1010.82 1010.96 1011.00 1011.20 1011.26 1011.37 1011.92 1012.11 1012.52 1013.05 1013.52 1013.91 1014.38 1014.76 1015.12 1015.83 1016.26 1016.59 1016.91 1017.26 1017.63 1017.76 1017.78 1017.74 1017.83 1017.77 1017.58 1017.39 1017.54 1017.52 1017.68 1017.71 1017.67 1017.87 1018.21 1018.57 1018.77 1018.97 1019.33 1019.30 1019.29
1007.17 1006.95 1007.26 1007.98 1008.94 1009.83 1010.27 1011.81 1011.25 1011.08 1010.99 1011.08 1011.13 1011.29 1011.48 1011.93 1012.42 1012.99 1013.68 1013.90 1014.01 1014.18 1014.77 1015.41 1015.81 1016.10 1016.27 1016.54 1017.01 1017.15 1017.25 1017.25 1016.92 1017.00 1017.08 1017.33 1016.91 1016.99 1017.02 1017.02 1017.03 1017.04 1017.25 1017.65 1017.65 1018.00 1018.31 1018.62 1018.79
1006.94 1007.16 1008.07 1008.76 1009.83 1010.67 1011.31 1011.90 1011.24 1011.26 1011.22 1010.93 1010.74 1010.85 1011.32 1011.68 1011.97 1012.51 1013.13 1013.20 1013.60 1013.98 1014.29 1014.52 1014.87 1015.20 1015.58 1016.01 1016.29 1016.52 1016.69 1016.54 1016.35 1016.70 1016.72 1016.81 1016.62 1016.46 1016.35 1016.42 1016.39 1016.56 1016.67 1016.78 1016.96 1017.19 1017.34 1017.49 1017.67
1006.92 1008.03 1009.43 1010.54 1011.22 1012.34 1012.20 1012.24 1011.60 1010.98 1009.88 1010.64 1010.74 1010.87 1011.10 1011.58 1011.87 1012.28 1012.70 1013.12 1013.41 1013.60 1013.77 1014.00 1014.39 1014.82 1015.32 1015.62 1015.96 1016.23 1016.29 1016.29 1016.53 1016.43 1016.55 1016.29 1016.00 1016.00 1015.83 1015.77 1015.77 1015.73 1016.04 1016.11 1016.15 1016.22 1016.49 1016.57 1016.68
1007.45 1009.32 1011.05 1012.37 1013.07 1013.03 1012.45 1012.41 1010.90 1010.00 1009.84 1009.91 1010.30 1010.76 1011.06 1011.45 1011.82 1012.24 1012.74 1012.98 1013.06 1013.13 1013.42 1013.87 1014.22 1014.51 1015.00 1015.35 1015.60 1015.79 1015.84 1015.93 1015.92 1015.78 1015.67 1015.60 1015.48 1015.34 1015.17 1015.11 1015.17 1015.10 1015.07 1015.21 1015.38 1015.78 1015.61 1015.85 1016.12
1008.21 1009.56 1011.53 1013.22 1014.36 1013.76 1012.75 1012.17 1010.63 1009.89 1009.54 1009.81 1010.42 1010.64 1011.12 1011.47 1011.58 1012.04 1012.41 1012.57 1012.76 1012.97 1013.41 1013.79 1014.19 1014.43 1014.69 1015.01 1015.03 1015.20 1015.38 1015.60 1015.59 1015.46 1015.32 1015.28 1015.10 1014.78 1014.51 1014.43 1014.40 1014.39 1014.29 1014.42 1014.60 1014.92 1015.09 1015.29 1015.28
1008.60 1010.07 1011.39 1013.17 1014.82 1014.63 1013.51 1012.03 1010.69 1010.15 1010.17 1010.16 1010.87 1011.07 1011.31 1011.50 1011.76 1012.02 1012.28 1012.36 1012.64 1012.93 1013.27 1013.61 1013.99 1014.21 1014.41 1014.62 1014.81 1015.06 1015.22 1015.38 1015.29 1014.97 1014.92 1014.74 1014.54 1014.35 1014.15 1014.04 1014.00 1013.78 1013.66 1013.69 1013.96 1014.20 1014.31 1014.42 1014.26
1007.78 1009.93 1011.74 1013.33 1014.88 1015.28 1014.08 1012.94 1011.68 1011.03 1011.01 1010.94 1011.30 1011.50 1011.59 1011.88 1012.06 1012.26 1012.39 1012.48 1012.77 1013.01 1013.39 1013.69 1013.96 1014.21 1014.31 1014.49 1014.78 1014.94 1014.86 1014.69 1014.59 1014.49 1014.32 1014.16 1013.93 1013.82 1013.63 1013.42 1013.32 1013.22 1013.03 1012.92 1012.99 1013.26 1013.49 1013.64 1013.37
1009.01 1010.37 1012.22 1013.78 1014.78 1015.22 1014.95 1012.95 1010.91 1010.72 1010.54 1010.60 1010.83 1011.05 1011.53 1011.93 1012.16 1012.31 1012.46 1012.66 1012.90 1013.18 1013.48 1013.81 1014.04 1014.14 1014.26 1014.51 1014.55 1014.55 1014.37 1014.20 1014.10 1014.06 1013.79 1013.60 1013.45 1013.28 1013.12 1012.90 1012.71 1012.52 1012.28 1012.09 1012.09 1012.08 1012.35 1012.64 1012.66
1008.74 1010.05 1011.51 1013.64 1015.17 1015.27 1014.47 1012.26 1010.67 1010.50 1010.46 1010.67 1010.92 1011.18 1011.55 1011.83 1012.05 1012.33 1012.49 1012.85 1013.15 1013.43 1013.66 1013.85 1014.05 1014.08 1014.14 1014.22 1014.36 1014.42 1014.21 1014.08 1014.09 1013.89 1013.58 1013.29 1013.03 1012.69 1012.54 1012.34 1012.11 1011.82 1011.56 1011.37 1011.31 1011.26 1011.18 1011.28 1011.42
Thickness
5825 5819 5817 5804 5777 5767 5754 5764 5784 5779 5776 5781 5785 5778 5762 5760 5754 5737 5764 5768 5769 5767 5766 5766 5765 5764 5763 5762 5761 5760 5761 5761 5761 5763 5762 5759 5761 5763 5763 5763 5762 5766 5767 5766 5766 5767 5767 5765 5768
5829 5822 5812 5799 5760 5744 5751 5774 5773 5783 5785 5787 5783 5774 5764 5752 5762 5758 5759 5766 5765 5763 5764 5764 5762 5761 5760 5759 5760 5760 5759 5757 5757 5760 5762 5760 5755 5761 5762 5762 5761 5763 5765 5765 5763 5765 5765 5763 5765
5829 5828 5802 5781 5758 5749 5751 5776 5780 5789 5796 5792 5778 5778 5770 5753 5760 5760 5765 5764 5763 5762 5762 5762 5762 5760 5758 5758 5757 5757 5757 5755 5753 5755 5758 5758 5755 5757 5760 5761 5760 5761 5764 5763 5762 5764 5764 5764 5762
5827 5815 5803 5773 5768 5776 5777 5784 5790 5791 5794 5796 5786 5768 5773 5774 5766 5767 5766 5763 5761 5760 5758 5758 5759 5758 5756 5756 5756 5754 5754 5752 5751 5753 5755 5755 5754 5754 5758 5759 5758 5760 5762 5763 5761 5761 5762 5762 5761
5825 5809 5781 5770 5773 5784 5796 5800 5798 5787 5789 5787 5788 5764 5761 5769 5773 5768 5763 5761 5759 5758 5758 5757 5756 5755 5755 5753 5753 5751 5750 5749 5751 5750 5754 5752 5753 5754 5757 5757 5757 5759 5761 5761 5760 5760 5759 5760 5759
5806 5803 5769 5763 5777 5796 5808 5807 5802 5789 5788 5786 5779 5771 5760 5771 5770 5766 5765 5762 5759 5757 5755 5755 5752 5751 5752 5751 5749 5749 5748 5748 5749 5747 5749 5750 5750 5754 5757 5756 5755 5757 5759 5759 5759 5758 5759 5761 5760
5804 5790 5776 5774 5778 5793 5808 5813 5799 5791 5788 5785 5791 5764 5763 5766 5770 5768 5763 5761 5758 5755 5752 5752 5750 5751 5749 5749 5748 5747 5747 5749 5748 5746 5746 5750 5750 5752 5754 5755 5753 5754 5757 5758 5757 5757 5757 5758 5759
5810 5800 5787 5784 5782 5791 5815 5813 5810 5802 5791 5805 5800 5767 5760 5772 5774 5769 5763 5758 5756 5754 5751 5747 5747 5749 5749 5748 5747 5746 5747 5747 5747 5744 5744 5747 5748 5750 5753 5751 5752 5753 5756 5756 5756 5756 5755 5758 5757
5826 5782 5767 5783 5790 5800 5816 5810 5816 5818 5800 5802 5800 5793 5792 5784 5777 5768 5759 5754 5752 5750 5748 5747 5746 5747 5747 5746 5745 5745 5743 5743 5742 5742 5743 5745 5746 5750 5748 5748 5751 5752 5756 5755 5755 5755 5754 5756 5758
5803 5778 5788 5805 5813 5811 5815 5818 5812 5805 5799 5794 5793 5795 5792 5785 5777 5767 5761 5754 5751 5750 5749 5746 5748 5748 5746 5745 5744 5743 5742 5740 5739 5740 5741 5742 5744 5745 5745 5747 5747 5752 5753 5755 5756 5754 5753 5754 5756
5808 5792 5812 5819 5825 5827 5815 5816 5823 5804 5789 5797 5792 5789 5789 5784 5777 5770 5765 5761 5757 5751 5750 5748 5748 5747 5745 5744 5742 5741 5741 5742 5743 5740 5740 5741 5738 5740 5741 5744 5746 5749 5752 5753 5754 5753 5754 5754 5754
5803 5816 5818 5826 5829 5822 5818 5821 5815 5815 5812 5819 5808 5800 5790 5782 5778 5774 5768 5764 5759 5755 5755 5754 5751 5747 5746 5745 5744 5743 5742 5742 5741 5741 5742 5742 5742 5741 5740 5743 5745 5747 5749 5749 5751 5753 5753 5755 5756
5808 5820 5827 5831 5828 5835 5829 5821 5818 5816 5823 5819 5808 5799 5788 5783 5781 5779 5776 5771 5766 5761 5760 5758 5755 5751 5749 5747 5744 5744 5744 5743 5743 5743 5741 5741 5739 5743 5741 5741 5743 5743 5743 5747 5747 5747 5751 5752 5755
5823 5823 5823 5835 5840 5837 5824 5822 5823 5819 5823 5812 5803 5793 5789 5785 5783 5780 5776 5773 5771 5767 5764 5762 5758 5755 5754 5752 5749 5747 5746 5746 5745 5745 5743 5742 5741 5739 5738 5738 5739 5739 5740 5743 5743 5743 5747 5751 5751
5825 5815 5827 5839 5845 5832 5833 5813 5816 5822 5821 5806 5798 5795 5791 5791 5790 5784 5783 5778 5776 5775 5772 5768 5764 5761 5758 5756 5754 5751 5749 5748 5748 5746 5744 5743 5741 5739 5737 5738 5738 5738 5740 5741 5743 5742 5746 5748 5750
5810 5806 5796 5831 5836 5834 5832 5798 5814 5823 5818 5804 5799 5798 5795 5791 5790 5788 5786 5782 5778 5775 5774 5773 5771 5767 5763 5761 5759 5756 5753 5751 5750 5747 5745 5744 5745 5743 5740 5739 5737 5737 5737 5739 5741 5741 5745 5746 5749
5790 5784 5793 5809 5837 5830 5824 5806 5814 5819 5816 5807 5804 5803 5799 5791 5790 5789 5789 5786 5782 5779 5775 5773 5773 5771 5769 5764 5761 5759 5757 5755 5754 5752 5750 5749 5748 5746 5743 5741 5741 5739 5740 5741 5741 5740 5743 5745 5748
5784 5789 5798 5802 5826 5827 5814 5811 5810 5815 5814 5811 5808 5804 5798 5794 5796 5794 5788 5787 5784 5782 5778 5774 5772 5771 5767 5764 5760 5758 5757 5757 5756 5755 5754 5752 5750 5748 5746 5745 5744 5742 5741 5741 5741 5741 5742 5743 5745
5805 5799 5793 5817 5827 5810 5807 5804 5803 5810 5808 5804 5804 5804 5802 5802 5802 5796 5792 5788 5786 5783 5779 5775 5772 5771 5767 5761 5758 5755 5756 5757 5757 5756 5756 5754 5752 5750 5748 5748 5748 5745 5743 5744 5743 5740 5739 5740 5742
5798 5793 5797 5812 5821 5809 5796 5793 5801 5806 5810 5812 5809 5806 5807 5803 5801 5797 5795 5792 5789 5786 5782 5776 5774 5771 5768 5765 5764 5762 5761 5761 5759 5759 5757 5757 5755 5755 5754 5753 5752 5750 5748 5745 5743 5740 5738 5739 5741
5803 5793 5800 5802 5807 5802 5794 5779 5793 5805 5811 5811 5811 5813 5810 5807 5803 5798 5796 5794 5792 5787 5784 5779 5775 5773 5772 5769 5765 5762 5762 5761 5759 5760 5762 5762 5760 5760 5758 5757 5757 5755 5752 5748 5747 5745 5741 5738 5739
5792 5817 5813 5803 5785 5759 5788 5739 5777 5794 5799 5804 5807 5808 5810 5809 5808 5801 5793 5791 5792 5792 5788 5783 5779 5775 5775 5773 5767 5765 5763 5761 5765 5763 5763 5762 5763 5760 5760 5760 5759 5757 5755 5753 5752 5750 5746 5741 5736
5805 5817 5807 5802 5777 5772 5770 5746 5769 5788 5788 5796 5803 5811 5811 5810 5810 5803 5797 5798 5796 5792 5789 5788 5785 5782 5778 5774 5770 5767 5764 5765 5766 5763 5762 5762 5762 5761 5760 5758 5759 5758 5756 5756 5754 5751 5748 5747 5744
5814 5799 5781 5767 5758 5739 5763 5751 5756 5772 5800 5797 5806 5809 5809 5809 5808 5805 5802 5798 5796 5796 5792 5789 5785 5781 5777 5773 5768 5764 5762 5762 5758 5759 5759 5761 5762 5761 5761 5758 5758 5757 5755 5754 5753 5752 5749 5748 5746
5799 5767 5730 5741 5726 5732 5758 5748 5768 5794 5805 5808 5805 5805 5807 5808 5805 5800 5796 5794 5794 5795 5792 5788 5783 5778 5775 5770 5766 5764 5761 5760 5759 5759 5759 5759 5758 5758 5759 5758 5757 5755 5754 5753 5750 5747 5746 5743 5740
5784 5774 5732 5730 5716 5730 5752 5750 5770 5797 5808 5811 5809 5807 5805 5803 5804 5799 5797 5796 5794 5793 5788 5783 5777 5774 5773 5769 5766 5763 5760 5757 5756 5756 5756 5755 5755 5756 5757 5755 5754 5752 5751 5750 5748 5745 5742 5736 5734
5783 5762 5771 5727 5717 5720 5732 5760 5788 5792 5794 5799 5794 5797 5796 5797 5795 5794 5795 5794 5790 5787 5782 5779 5774 5771 5768 5765 5763 5759 5756 5752 5751 5752 5752 5752 5752 5752 5751 5750 5748 5748 5748 5747 5743 5740 5739 5733 5734
5799 5780 5750 5729 5722 5720 5722 5736 5748 5776 5778 5784 5782 5784 5787 5788 5788 5788 5787 5786 5783 5780 5774 5771 5767 5762 5761 5760 5756 5752 5751 5751 5750 5749 5747 5746 5746 5745 5745 5745 5743 5742 5742 5742 5740 5737 5733 5729 5731
5776 5761 5739 5730 5719 5706 5703 5728 5771 5776 5780 5781 5785 5788 5783 5782 5782 5782 5780 5779 5776 5772 5768 5762 5757 5754 5751 5749 5748 5747 5746 5744 5742 5740 5741 5741 5740 5739 5738 5738 5738 5736 5736 5736 5734 5734 5730 5725 5724
5786 5768 5751 5724 5723 5704 5708 5729 5783 5776 5781 5782 5781 5781 5780 5780 5779 5776 5775 5769 5765 5761 5756 5752 5750 5748 5745 5742 5739 5736 5735 5733 5730 5730 5730 5730 5730 5731 5729 5729 5729 5730 5730 5730 5726 5725 5726 5725 5722